Regional Weather Roundup
Issued by NWS Wakefield, VA

Home | Current Version | Previous Version | Text Only | Print | Product List | Glossary Off
Versions: 1 2 3 4 5 6 7 8 9 10 11 12 13 14 15 16 17 18 19 20 21 22 23 24 25 26 27 28 29 30 31 32 33 34 35 36 37 38 39 40 41 42 43 44 45 46 47 48 49 50

000
ASUS41 KAKQ 250910
RWRAKQ

REGIONAL WEATHER ROUNDUP
NATIONAL WEATHER SERVICE WAKEFIELD VA
500 AM EDT FRI JUL 25 2014

Note: "fair" indicates few or no clouds below 12,000 feet with no
significant weather and/or obstructions to visibility. * = Denotes
station may not report precipitation (e.g., rain,snow,etc.),
thunder or fog.

VAZ042-051-052>054-056-251000-
NORTHERN VIRGINIA

CITY           SKY/WX    TMP DP  RH WIND       PRES   REMARKS
WASH NATIONAL  CLEAR     67  55  65 VRB3      30.01R
DULLES         CLEAR     57  55  93 W3        30.02R
FORT BELVOIR   CLEAR     60  58  93 CALM      30.02R
QUANTICO       CLEAR     63  58  83 N3        30.02R
FREDERICKSBRG* CLEAR     62  62 100 CALM      30.00R
STAFFORD*      CLEAR     60  60 100 N7        30.05R
WARRENTON      CLOUDY    59  59 100 CALM      30.01R FOG
CULPEPER*      CLEAR    N/A N/A N/A N5        30.01S
MANASSAS*      CLEAR     57  57 100 CALM      30.02R
LEESBURG*      CLEAR     61  59  94 N5        30.04R
WINCHESTER     CLEAR     55  54  94 NW3       30.04R
$$

VAZ048-049-060>072-079>083-251000-
CENTRAL AND SOUTH CENTRAL VIRGINIA...AND NORTH CENTRAL NORTH CAROLINA

CITY           SKY/WX    TMP DP  RH WIND       PRES   REMARKS
RICHMOND       PTCLDY    67  64  90 N6        29.98F
CHESTERFIELD*  SUNNY     63  54  72 NW3       30.01R
HANOVER        FOG       62  61  96 CALM      30.01S VSB 3/4
TAPPAHANNOCK*  CLEAR     64  61  89 CALM      30.00R
CHARLOTTSVILLE FOG       61  60  97 CALM      30.02R VSB 3/4
ORANGE*        FOG       57  55  94 CALM      30.03R VSB 1/4
LOUISA*        CLEAR     61  59  94 N3        30.00S
FARMVILLE*     FOG       63  63 100 CALM      29.99R VSB 1/4
SOUTH HILL*    CLOUDY    70  70 100 CALM      30.05S FOG
ROANOKE RAPIDS CLOUDY    63  61  94 CALM      29.99R FOG
RALEIGH        FOG       67  65  93 CALM      30.00R VSB 1/2
$$

VAZ088>098-251000-
SOUTHEAST VIRGINIA

CITY           SKY/WX    TMP DP  RH WIND       PRES   REMARKS
NORFOLK        CLOUDY    71  67  87 NW5       29.96R
VIRGINIA BEACH CLOUDY    71  69  93 VRB3      29.95R
NORFOLK NAVAL  MOCLDY    71  67  87 NW9       29.98R
WEST POINT*    CLEAR     69  66  90 NW3       29.99R
NEWPORT NEWS   MOCLDY    72  67  84 NW5       29.97R
LANGLEY AFB    PTCLDY    68  68 100 NW5       29.96R
FORT EUSTIS    PTCLDY    71  71 100 N6        29.95S
WILLIAMSBURG*  CLEAR     70  68  94 N3        29.98S
FRANKLIN*      CLOUDY    70 N/A N/A CALM      29.98R
WAKEFIELD      CLOUDY    69  66  90 NW3       29.98S FOG
$$

VAZ020-022-025-037-045-251000-
WESTERN AND SOUTHWEST VIRGINIA

CITY           SKY/WX    TMP DP  RH WIND       PRES   REMARKS
STAUNTON*      CLOUDY    66  63  92 CALM      30.06S FOG
HOT SPRINGS VA CLOUDY    56  49  76 NE6       30.14S
LYNCHBURG      CLOUDY    64  64 100 CALM      30.04S FOG
DANVILLE       CLOUDY    68  65  90 NE5       30.01S
MARTINSVILLE   CLEAR     64  64  97 CALM      30.05R
ROANOKE        LGT RAIN  64  61  90 N7        30.06S
BLACKSBURG     CLOUDY    63  63 100 CALM        N/A  FOG
DUBLIN*        CLOUDY    63  61  94 CALM      30.08S
MARION*        FOG      N/A N/A N/A CALM      30.11R VSB<1/4
HILLSVILLE*    MOCLDY    60  58  94 CALM      30.08S
RICHLANDS*     FOG       61  59  94 CALM      30.10R VSB<1/4
WISE*          CLOUDY    59  59 100 N3        30.12R FOG
ABINGDON*      CLEAR     61  59  96 CALM      30.08R FOG
$$

MDZ021>025-VAZ099-100-251000-
SOUTHERN MARYLAND AND THE DELMARVA PENINSULA

CITY           SKY/WX    TMP DP  RH WIND       PRES   REMARKS
PATUXENT RIVER CLEAR     69  56  62 NE10      29.98R
BAY BRIDGE APT   N/A     68  52  56 N7        29.99R
LEONARDTOWN    CLEAR     61  57  88 CALM      30.00R
DOVER          CLEAR     60  56  86 NW6       29.94S
GEORGETOWN     CLEAR     65  57  75 VRB7      29.96S
EASTON         CLEAR     65  57  76 CALM      30.02R
CAMBRIDGE      CLEAR     68  54  60 N6        29.97R
SALISBURY      NOT AVBL
OCEAN CITY     MOCLDY    68  60  75 N7        29.94S
WALLOPS ISLAND CLOUDY    69  62  78 N6        29.96R
ACCOMACK*        N/A     68  63  83 N5        29.95R
$$

NCZ012>017-030>032-251000-
EASTERN NORTH CAROLINA

CITY           SKY/WX    TMP DP  RH WIND       PRES   REMARKS
ELIZABETH CITY CLEAR     69  68  96 NW6       29.96R
AHOSKIE*       PTCLDY    68  66  94 CALM      30.00R
EDENTON*       CLOUDY    70  69  97 N8        29.96R
CURRITUCK*     MOCLDY    70  68  92 N3        29.96S
KILL DEVIL HLS CLEAR     71  70  95 NW3       29.94R
MANTEO         NOT AVBL
CAPE HATTERAS  MOCLDY    73  72  96 NW6       29.94R
GOLDSBORO      PTCLDY    67  67  99 N2        29.98R
WASHINGTON     CLOUDY    68  67  98 N5        29.98R
GREENVILLE     CLOUDY    68  68 100 N6        30.00S FOG
NEW BERN       CLOUDY    70  67  90 NW6       29.99R
WILMINGTON     CLOUDY    74  72  93 CALM      29.95S
$$

VAZ048-251000-
ELSEWHERE

CITY           SKY/WX    TMP DP  RH WIND       PRES   REMARKS
HARRISBURG PA  CLEAR     60  50  69 CALM      30.01R
BALTIMORE      CLEAR     61  53  75 CALM      30.00R
ANNAPOLIS      CLEAR     68  56  65 N7        29.99R
ANDREWS AFB    CLEAR     60  54  81 N6        30.00R
WILMINGTON DE  CLEAR     60  53  77 NW7       29.98S
PHILADELPHIA   CLEAR     64  51  62 N7        29.97S
WILDWOOD NJ*   MOCLDY    66  54  63 N8        29.96S
ATLANTIC CITY  CLEAR     61  55  81 NW5       29.95S
HENDERSON NC   CLOUDY    68  66  94 N3        30.01R FOG
GREENSBORO     CLOUDY    68  66  94 E5        30.02R
ROCKY MOUNT    CLEAR     67  65  93 CALM      29.99R
FAYETTEVILLE   CLOUDY    70  68  93 NE6       29.98R
CHARLOTTE      PTCLDY    68  64  87 NE5       30.00S
$$

VAZ100-251000-
MARINE

STATION/POSITION TIME  TEMP    WIND        PRES    WAVE   SWELL
                       AIR SEA DIR/SP/G            HT/PER HT/PER
                 (UTC) (F)     (DEG/KT/KT) (MB)    (FT/S) (FT/S)
44066 TX TWR #4  0900   72 74  340/ 10/ 12 1012.3R   3/ 8   2/ 8
CAPE MAY NJ      0900   69 77   10/  5/  9 1013.7R
LEWES DE         0900   71 73   10/ 16/ 18 1013.9R
15NM E FENWICK I 0900   73 75              1013.3R   3/ 4
OCEAN-CITY-INLET 0900   72 72   20/ 12/ 17 1013.4S
WACHAPREAGUE VA  0900   69 80  350/  4/  7 1014.0R
THOMAS POINT MD  0900   69 79  350/ 12/ 12 1015.9R
GOOSES REEF MD   0900   73      40/ 14/ 17 1015.4R
COVE POINT MD    0900   72      50/ 14/ 16 1014.9R
SOLOMONS ISLAND  0900      80                N/A
BISHOPS HEAD MD  0900   70 78   10/  8/ 12 1014.3R
PINEY POINT MD   0900           30/  7/  9   N/A
POTOMAC MD       0900   74      40/ 16/ 17 1014.2S
CAMBRIDGE MD     0900   68 79   10/ 12/ 16 1014.7R
LEWISETTA VA     0900   72 79   30/  6/  9 1014.7R
RAPPAHANNOCK LGT 0900           10/ 19/ 21 1014.8R
STINGRAY PT      0900   74     350/ 12/ 16 1015.1R
YORK RVR RNG VA  0900   72     350/ 15/ 17 1013.8R
YORKTOWN VA      0900   71 80  330/ 12/ 15 1014.4R
JAMESTOWN VA     0900   70     350/  8/ 10   N/A
DOMINION TERM VA 0900   72     340/  8/ 10 1014.5R
KIPTOPEKE VA     0900      81   10/  6/  8   N/A
CHES BAY BRIDGE  0900   74 78  320/ 12/ 16 1013.7R
CAPE HENRY VA    0900   74     330/ 14/ 17 1013.0R
WILLOUBY STN VA  0900          340/ 10/ 11 1013.8R
S CRANEY ISL VA  0900          300/  7/ 11 1014.5R
CAPE HENRY BUOY  0900      77                N/A     2/ 7
1ST LANDING BUOY 0900   75     340/ 14/ 16 1013.8R
CAPE CHARLES BUO 0900      76                N/A     2/ 8
OFFSHORE WE BUOY 0900      78                N/A     2/ 7
64NM E OF VA BCH 0900   76 78  360/ 10/ 12 1013.1R   3/ 7   2/ 7
DUCK PIER NC     0900   73 74  320/ 15/ 17 1013.0R
44056 DUCK FRF   0900                        N/A     2/ 3
OREGON INLET NC  0900   72 77  320/  9/ 12 1013.7R
HATTERAS NC      0900   76 80  320/ 16/ 19 1013.9R
DIAMOND SHLS NC  0900          VRB 16/ 17  1013.0R   3/ 8   2/ 8
CAPE LOOKOUT NC  0800   74     260/  4/  4 1013.3R
$$


USA.gov is the U.S. government's official web portal to all federal, state and local government web resources and services.